Preview of NWS' New Version of Forecast
This preview is not operational and should not be used for support decisions.

Regional Weather Roundup (RWR)

Issued by National Weather Service (NWS)

                            
000
ASUS43 KBIS 210310
RWRND 

NORTH DAKOTA REGIONAL WEATHER ROUNDUP
NATIONAL WEATHER SERVICE BISMARCK ND
900 PM CST WED FEB 20 2019

NOTE: "FAIR" INDICATES FEW OR NO CLOUDS BELOW 12,000 FEET WITH NO
SIGNIFICANT WEATHER AND/OR OBSTRUCTIONS TO VISIBILITY.


NDZ001>003-009>011-017-210400-
NORTHWEST NORTH DAKOTA
  
CITY           SKY/WX    TMP DP  RH WIND       PRES   REMARKS
WILLISTON      LGT SNOW   3  -3  76 CALM      29.79R                  
MINOT          LGT SNOW  10   5  80 W7        29.76R WCI  -1          
MINOT AFB      CLOUDY     7   3  82 NW7       29.76R WCI  -4          
$$
 
NDZ018>021-031>035-040>046-210400-
SOUTHWEST NORTH DAKOTA
  
CITY           SKY/WX    TMP DP  RH WIND       PRES   REMARKS
BISMARCK       LGT SNOW  13   9  84 NW9       29.77R FOG     WCI   1  
DICKINSON      MOCLDY     4  -1  80 W12       29.71R WCI -12          
GARRISON         N/A      9   6  88 NW9       29.74R WCI  -4          
HETTINGER ARPT CLEAR     -3  -7  82 W9        29.73R WCI -19          
$$
 
NDZ004>008-012>016-024-026-027-054-210400-
NORTHEAST NORTH DAKOTA
  
CITY           SKY/WX    TMP DP  RH WIND       PRES   REMARKS
GRAND FORKS    FLURRIES  15  12  88 N14       29.72R WCI   0          
GRND FRKS AFB  LGT SNOW  17  14  90 N13       29.72R FOG     WCI   3  
DEVILS LAKE    LGT SNOW  12  10  92 N12       29.73R FOG     WCI  -2  
$$
 
NDZ022-023-025-028>030-036>039-047>053-210400-
SOUTHEAST NORTH DAKOTA
  
CITY           SKY/WX    TMP DP  RH WIND       PRES   REMARKS
FARGO          LGT SNOW  20  18  92 NE5       29.67R FOG     WCI  13  
JAMESTOWN      LGT SNOW  14  12  92 NW15      29.68R FOG     WCI  -1  
$$